Flag for U.S.A. Weather for the Past 2 Weeks in Warminster Township, Pennsylvania, U.S.A.

Now
7 °F

Passing clouds.


Feels Like: -9 °F
Forecast: 4 / 16 °F
Wind: 13 mph from Northwest

Location: Doylestown Airport

Current Time: Feb 14, 2016 at 1:23:13 AM

Latest Report: Feb 14, 2016 at 12:54 AM


Visibility: 10 mi

Pressure: 30.37 "Hg

Humidity: 43%

Dew point: -11 °F

Location of Warminster TownshipLocation

Historic Weather in Warminster Township — Graph

°F

Warminster Township Temperature Yesterday

Maximum temperature yesterday: 19 °F (at 10:54 AM)
Minimum temperature yesterday: 7 °F (at 11:54 PM)
Average temperature yesterday: 14 °F

High & Low Weather Summary for the Past Weeks

 TemperatureHumidityPressure
High55 °F (Jan 31, 2:54 PM)100% (Feb 1, 7:54 PM)30.45 "Hg (Feb 1, 7:54 PM)
Low7 °F (Feb 13, 11:54 PM)29% (Feb 7, 1:54 PM)29.54 "Hg (Feb 9, 3:03 PM)
Average32 °F68%30.01 "Hg
* Reported Jan 29 11:54 PM — Feb 13 11:54 PM, Warminster Township, Weather by CustomWeather, © 2016

Note: Actual official high and low records may vary slightly from our data, if they occured in-between our weather recording intervals... More about our weather records

Advertising

Warminster Township Weather History for the Previous 24 Hours

 ConditionsComfort  
Time TempWeatherWind HumidityBarometerVisibility
11:54 PM
Sat, Feb 13
7 °FPassing clouds.15 mph41%30.36 "Hg10 mi
10:54 PM8 °FClear.14 mph39%30.34 "Hg10 mi
9:54 PM8 °FClear.10 mph41%30.34 "Hg10 mi
8:54 PM8 °FClear.10 mph41%30.33 "Hg10 mi
7:54 PM8 °FClear.12 mph39%30.33 "Hg10 mi
6:54 PM9 °FClear.16 mph34%30.31 "Hg10 mi
5:54 PM10 °FPassing clouds.25 mph36%30.28 "Hg10 mi
4:54 PM11 °FPassing clouds.15 mph34%30.25 "Hg10 mi
3:54 PM13 °FOvercast.22 mphN/A30.22 "Hg10 mi
2:54 PM15 °FOvercast.22 mphN/A30.17 "Hg10 mi
1:54 PM17 °FPartly sunny.15 mph32%30.15 "Hg10 mi
12:54 PM16 °FMostly cloudy.17 mph37%30.13 "Hg10 mi
11:54 AM17 °FOvercast.14 mph51%30.13 "Hg10 mi
10:54 AM19 °FPartly sunny.18 mph36%30.11 "Hg10 mi
9:54 AM18 °FSunny.17 mph32%30.10 "Hg10 mi
8:54 AM17 °FSunny.17 mph37%30.08 "Hg10 mi
7:54 AM17 °FPassing clouds.9 mph56%30.06 "Hg10 mi
6:54 AM18 °FMostly cloudy.12 mph65%30.01 "Hg10 mi
5:54 AM17 °FPassing clouds.12 mph70%29.98 "Hg10 mi
4:54 AM17 °FClear.12 mph80%29.94 "Hg10 mi
3:54 AM17 °FClear.5 mph83%29.92 "Hg10 mi
2:54 AM17 °FPassing clouds.6 mph88%29.92 "Hg10 mi
1:54 AM18 °FOvercast.6 mph84%29.93 "Hg10 mi
Weather by CustomWeather, © 2016

See weather overviewHow to use our weather pages